Location: Krasnoyarskiy Pitomnik
(51.1333°N, 71.6167°E)
Time: 23:38:50
(UTC+00:00)

NOSS 2-2 (C) - Pass Details

Date: 05 June 2022
Orbit: 439 x 1763 km, 63.3° (Epoch: 02 June)

Event Time Altitude Azimuth Distance (km) Brightness Sun altitude
Rises 16:40:44 0° 315° (NW) 2,861 9.1 -9.1°
Reaches altitude 10° 16:42:42 10° 317° (NW) 2,083 7.9 -9.3°
Maximum altitude 16:47:26 81° 45° (NE) 834 4.2 -9.7°
Enters shadow 16:53:43 12° 133° (SE) 2,756 6.2 -10.2°
